Date,TemperatureHighF,TemperatureAvgF,TemperatureLowF,DewpointHighF,DewpointAvgF,DewpointLowF,HumidityHigh,HumidityAvg,HumidityLow,PressureMaxIn,PressureMinIn,WindSpeedMaxMPH,WindSpeedAvgMPH,GustSpeedMaxMPH,PrecipitationSumIn
2014-1-1,47,30,23,32,24,20,91,79,45,30.40,30.13,10,2,19,0.00
2014-1-2,31,28,20,28,25,14,94,89,75,30.13,29.71,17,2,27,0.09
2014-1-3,20,14,8,15,5,2,83,68,55,30.52,29.85,19,7,32,0.00
2014-1-4,31,16,5,21,10,2,87,78,53,30.45,30.22,3,1,4,0.00
2014-1-5,35,25,14,30,20,12,90,82,66,30.25,29.59,4,0,7,0.00
2014-1-6,44,23,-1,41,15,-12,98,72,53,30.12,29.44,30,9,52,0.06
2014-1-7,8,2,-5,-2,-9,-15,73,61,51,30.47,30.11,20,8,37,0.00
2014-1-8,26,16,4,17,7,-3,83,67,46,30.58,30.44,5,1,7,0.00
2014-1-9,34,25,15,25,19,12,89,77,56,30.61,30.46,3,1,6,0.00
2014-1-10,38,33,27,33,28,22,94,85,72,30.46,30.07,3,0,4,0.03
2014-1-11,49,38,34,45,36,32,100,92,73,30.07,29.38,22,3,35,0.13
2014-1-12,43,36,26,34,29,24,93,77,64,30.11,29.60,24,8,44,0.00
2014-1-13,49,35,23,36,30,21,94,83,58,30.11,29.82,9,1,12,0.00
2014-1-14,49,38,27,42,35,25,97,89,69,29.92,29.74,11,2,22,0.02
2014-1-15,37,31,24,31,25,20,96,78,62,30.04,29.90,10,3,23,0.00
2014-1-16,36,29,22,23,19,14,81,66,48,30.06,29.89,9,2,16,0.00
2014-1-17,42,32,24,32,26,19,91,77,59,29.96,29.83,25,3,38,0.01
2014-1-18,28,19,15,21,11,6,81,69,58,30.04,29.90,19,6,37,0.00
2014-1-19,36,28,18,28,20,12,90,73,58,29.97,29.70,17,5,38,0.01
2014-1-20,45,39,33,31,26,21,80,61,53,29.87,29.63,20,8,38,0.00
2014-1-21,35,24,11,29,20,3,95,86,70,29.98,29.76,10,4,17,0.41
2014-1-22,14,8,0,4,-2,-7,75,64,49,30.10,29.97,12,4,21,0.00
2014-1-23,18,9,2,9,1,-4,88,72,57,30.51,30.09,14,4,28,0.00
2014-1-24,20,9,0,5,-2,-6,80,63,37,30.57,29.98,15,5,27,0.00
2014-1-25,31,16,-2,22,10,-6,90,75,58,29.98,29.44,19,6,31,0.02
2014-1-26,24,18,12,19,11,2,90,73,39,29.86,29.69,20,4,31,0.06
2014-1-27,40,21,8,36,13,-4,99,71,48,30.24,29.60,22,6,36,0.03
2014-1-28,13,7,-1,0,-6,-10,66,54,40,30.46,30.24,12,2,21,0.00
2014-1-29,18,10,0,0,-4,-9,66,55,41,30.38,30.27,14,5,25,0.00
2014-1-30,28,12,-3,13,3,-8,81,69,37,30.45,30.11,6,1,11,0.00
2014-1-31,46,29,14,27,18,10,87,66,33,30.21,30.10,13,3,26,0.00
2014-2-1,46,32,26,32,26,22,90,77,48,30.24,29.97,6,1,7,0.00
2014-2-2,52,38,26,46,34,24,96,87,77,30.11,29.92,13,2,19,0.04
2014-2-3,37,33,30,35,31,25,97,92,82,30.33,30.03,8,2,13,1.04
2014-2-4,30,27,21,26,23,19,95,85,79,30.43,30.09,6,2,9,0.05
2014-2-5,39,30,24,36,27,18,97,87,69,30.18,29.68,22,6,36,1.09
2014-2-6,32,26,22,21,18,15,78,71,59,30.36,30.17,10,4,21,0.00
2014-2-7,33,26,18,21,18,13,83,70,58,30.38,30.28,13,6,20,0.00
2014-2-8,30,23,16,24,18,12,90,81,62,30.37,30.20,7,1,12,0.00
2014-2-9,30,26,24,27,22,18,95,87,73,30.20,29.97,15,3,26,0.08
2014-2-10,27,21,10,18,12,5,84,70,54,30.37,30.10,11,4,21,0.00
2014-2-11,28,14,2,11,6,-1,88,71,43,30.52,30.36,8,2,11,0.00
2014-2-12,22,11,-1,15,5,-5,90,77,60,30.55,30.23,8,2,11,0.10
2014-2-13,32,24,17,30,21,14,95,87,77,30.24,29.51,19,4,37,0.80
2014-2-14,42,34,27,29,24,17,87,68,49,29.72,29.53,26,10,41,0.00
2014-2-15,33,28,19,31,22,10,96,80,63,30.03,29.62,16,5,29,0.31
2014-2-16,28,23,18,23,15,9,90,71,54,30.27,30.00,11,4,20,0.01
2014-2-17,29,21,5,24,12,2,92,70,52,30.47,30.08,13,4,20,0.07
2014-2-18,48,33,17,30,25,15,97,73,40,30.09,29.98,22,7,44,0.02
2014-2-19,53,37,24,44,30,21,95,78,48,30.16,29.72,19,5,38,0.15
2014-2-20,50,34,25,39,30,23,95,85,57,30.21,29.88,4,1,5,0.00
2014-2-21,52,41,34,45,34,29,99,78,43,30.01,29.69,28,6,48,0.02
2014-2-22,57,40,28,34,28,24,90,67,31,30.07,29.99,17,4,31,0.00
2014-2-23,59,39,27,38,32,24,92,76,39,30.05,29.89,15,4,24,0.01
2014-2-24,37,32,27,30,19,12,79,58,44,30.14,29.97,19,11,36,0.01
2014-2-25,35,29,25,24,19,13,80,65,50,30.13,30.00,14,5,28,0.00
2014-2-26,31,26,18,22,15,8,84,64,42,30.02,29.86,16,5,23,0.00
2014-2-27,31,21,13,15,9,0,82,60,43,30.19,29.71,23,8,39,0.00
2014-2-28,30,17,5,13,5,-1,78,59,37,30.43,30.19,6,2,9,0.00
2014-3-1,38,25,12,26,14,7,79,64,46,30.34,30.16,3,1,6,0.00
2014-3-2,39,34,26,36,29,22,97,83,66,30.16,30.01,11,3,17,0.23
2014-3-3,26,16,9,22,6,-2,85,64,46,30.41,30.05,13,4,19,0.04
2014-3-4,34,20,8,20,11,2,83,70,41,30.45,30.23,6,1,10,0.00
2014-3-5,46,31,18,24,16,12,89,59,29,30.41,30.20,11,3,18,0.00
2014-3-6,34,26,19,21,15,9,73,63,50,30.55,30.35,13,7,18,0.00
2014-3-7,40,30,25,30,23,17,90,75,64,30.35,29.98,6,2,9,0.00
2014-3-8,58,40,23,37,30,21,96,72,41,30.00,29.91,16,5,26,0.00
2014-3-9,45,36,30,36,24,17,91,65,38,30.17,29.97,17,6,25,0.00
2014-3-10,64,48,30,38,32,24,83,55,34,30.01,29.65,17,8,27,0.00
2014-3-11,71,55,40,45,40,36,87,58,36,29.71,29.58,15,6,32,0.00
2014-3-12,58,40,25,54,36,18,97,86,69,29.64,29.04,28,5,44,0.13
2014-3-13,28,21,11,18,7,1,79,57,41,30.20,29.64,18,10,34,0.00
2014-3-14,63,43,22,38,25,11,70,51,33,30.18,29.80,17,6,27,0.00
2014-3-15,57,49,34,40,31,23,85,53,30,30.08,29.75,23,9,46,0.06
2014-3-16,39,31,24,28,25,20,94,78,49,30.19,30.08,10,4,15,0.18
2014-3-17,29,25,21,24,21,18,94,86,76,30.09,30.01,6,3,10,0.19
2014-3-18,38,31,25,27,24,22,90,77,57,30.22,30.08,6,3,11,0.00
2014-3-19,51,39,33,42,34,26,98,80,70,30.19,29.81,8,3,11,0.15
2014-3-20,49,43,37,43,31,25,99,62,43,30.01,29.81,19,9,34,0.00
2014-3-21,61,44,36,40,35,30,90,73,39,30.06,29.97,16,4,21,0.00
2014-3-22,62,47,31,39,33,29,96,64,33,30.07,29.80,18,5,35,0.00
2014-3-23,39,35,24,32,23,10,83,62,48,30.27,30.07,13,6,24,0.00
2014-3-24,38,26,16,18,11,7,73,54,29,30.37,30.16,14,4,31,0.00
2014-3-25,35,28,25,29,23,15,94,79,64,30.16,29.89,11,2,19,0.02
2014-3-26,30,25,21,21,12,9,78,59,41,30.35,30.00,19,8,32,0.00
2014-3-27,56,34,17,29,19,12,80,58,31,30.42,30.08,11,3,16,0.00
2014-3-28,66,51,39,51,42,26,86,71,55,30.09,29.92,15,4,25,0.00
2014-3-29,49,43,36,44,41,35,99,92,78,30.11,29.66,6,1,9,0.67
2014-3-30,44,38,32,42,32,25,100,81,58,30.05,29.67,21,10,38,0.23
2014-3-31,61,46,34,34,27,20,81,51,30,30.21,30.04,14,5,27,0.00
2014-4-1,74,48,31,45,34,27,88,64,26,30.17,29.90,12,2,23,0.00
2014-4-2,72,56,44,50,42,29,93,60,31,30.13,29.99,11,4,18,0.03
2014-4-3,61,52,47,51,49,47,100,88,66,30.11,29.87,8,2,11,0.12
2014-4-4,55,47,44,50,46,-100,100,95,77,29.90,29.68,11,3,25,0.17
2014-4-5,55,43,32,48,32,28,85,66,50,30.21,29.75,25,7,36,0.01
2014-4-6,59,41,25,34,28,22,92,63,30,30.29,30.10,10,3,14,0.00
2014-4-7,39,38,36,38,35,30,100,92,71,30.13,29.58,12,2,16,0.24
2014-4-8,57,45,36,46,40,34,100,81,53,29.74,29.49,17,4,27,0.01
2014-4-9,60,45,30,40,33,28,95,67,34,30.10,29.74,16,4,27,0.00
2014-4-10,74,51,30,45,36,26,89,62,29,30.21,29.92,13,4,19,0.00
2014-4-11,72,56,44,53,45,38,97,68,39,30.08,29.94,24,7,36,0.08
2014-4-12,77,56,37,53,44,35,100,71,28,30.26,30.05,11,2,18,0.01
2014-4-13,86,66,45,56,50,44,98,62,28,30.09,29.87,17,5,24,0.00
2014-4-14,75,64,56,60,55,51,97,73,51,29.90,29.70,17,6,26,0.03
2014-4-15,58,45,29,57,41,18,100,85,64,30.15,29.51,24,6,40,0.13
2014-4-16,48,35,27,25,20,15,80,55,30,30.53,30.14,11,4,18,0.00
2014-4-17,57,42,26,36,27,19,82,57,36,30.63,30.46,11,4,19,0.00
2014-4-18,62,44,31,42,35,28,89,72,44,30.50,30.24,7,2,10,0.00
2014-4-19,66,50,35,45,38,32,96,65,33,30.34,30.23,9,2,12,0.00
2014-4-20,67,50,33,40,34,29,89,59,30,30.42,30.26,11,4,18,0.00
2014-4-21,78,55,34,49,39,31,92,61,26,30.26,29.85,7,2,10,0.00
2014-4-22,69,58,49,59,49,39,84,73,54,29.85,29.58,12,5,21,0.03
2014-4-23,52,46,41,39,34,30,75,64,54,30.08,29.75,18,9,30,0.00
2014-4-24,66,48,30,38,28,22,78,50,22,30.19,29.99,8,2,14,0.00
2014-4-25,68,51,36,56,43,31,99,75,39,30.00,29.69,13,2,23,0.38
2014-4-26,70,57,46,53,46,40,96,69,45,30.02,29.84,21,8,42,0.17
2014-4-27,68,52,36,46,40,33,97,67,28,30.15,30.01,11,3,14,0.00
2014-4-28,60,51,42,52,44,34,98,79,54,30.14,29.99,8,3,13,0.18
2014-4-29,50,48,47,50,48,46,100,98,97,30.22,30.02,11,6,15,0.82
2014-4-30,50,47,44,50,47,44,100,100,97,30.22,29.90,6,2,9,0.14
2014-5-1,68,56,45,58,48,39,100,78,47,29.91,29.80,20,6,30,0.01
2014-5-2,61,50,40,45,41,38,97,71,46,29.93,29.86,11,4,18,0.00
2014-5-3,69,54,39,49,42,37,95,69,40,29.93,29.78,14,5,23,0.00
2014-5-4,73,61,47,50,41,33,77,49,35,30.02,29.77,22,9,40,0.00
2014-5-5,62,49,35,48,39,31,92,70,39,30.12,29.94,11,2,17,0.07
2014-5-6,77,57,39,52,44,38,99,67,27,30.08,29.93,9,2,15,0.00
2014-5-7,63,51,40,56,47,38,99,87,73,30.30,30.08,12,2,22,0.46
2014-5-8,89,67,51,64,56,50,97,73,33,30.17,30.01,13,3,22,0.01
2014-5-9,87,69,52,69,59,51,100,74,39,30.10,29.88,11,2,20,0.01
2014-5-10,74,67,60,66,61,56,96,80,62,30.06,29.93,12,5,22,0.17
2014-5-11,86,67,54,58,53,44,98,67,29,30.21,30.06,9,3,16,0.00
2014-5-12,87,68,51,68,59,49,95,77,46,30.21,30.11,12,3,23,0.01
2014-5-13,90,71,60,74,65,59,100,85,48,30.19,30.08,17,2,25,0.09
2014-5-14,68,63,60,64,62,59,100,96,87,30.24,30.15,8,2,12,0.14
2014-5-15,71,64,53,66,62,52,100,95,79,30.16,29.95,12,3,20,1.30
2014-5-16,66,55,48,51,47,41,99,75,45,30.07,29.94,15,5,26,0.33
2014-5-17,61,53,44,47,42,37,87,67,44,30.29,30.07,13,6,22,0.01
2014-5-18,64,50,37,45,39,36,99,69,37,30.36,30.29,8,3,13,0.00
2014-5-19,73,48,33,47,39,31,96,76,29,30.42,30.25,6,1,8,0.00
2014-5-20,76,57,40,57,47,38,97,73,36,30.33,30.08,6,1,9,0.00
2014-5-21,74,62,50,64,57,49,99,84,64,30.08,29.94,9,2,12,0.00
2014-5-22,80,71,60,68,61,49,100,72,47,30.04,29.90,14,6,26,0.00
2014-5-23,74,61,46,58,50,45,99,69,45,30.17,30.02,14,4,24,0.00
2014-5-24,74,60,46,58,50,44,97,72,46,30.25,30.15,8,3,16,0.00
2014-5-25,84,64,44,58,51,44,100,70,30,30.28,30.15,7,2,13,0.00
2014-5-26,88,67,46,64,54,46,100,69,32,30.25,30.05,9,2,18,0.00
2014-5-27,89,72,59,73,65,57,96,81,51,30.09,29.94,15,5,23,0.05
2014-5-28,87,73,67,74,67,63,93,83,53,30.08,29.95,10,4,18,0.10
2014-5-29,68,62,59,65,60,58,99,96,87,30.20,30.06,7,2,10,0.10
2014-5-30,77,63,56,66,59,55,100,88,51,30.24,30.15,5,2,10,0.02
2014-5-31,81,65,50,62,55,50,100,75,43,30.31,30.21,7,2,10,0.00
2014-6-1,82,65,47,65,56,46,100,75,48,30.39,30.23,8,2,13,0.00
2014-6-2,81,67,53,72,62,52,100,87,64,30.28,30.10,5,1,6,0.00
2014-6-3,87,71,60,73,66,60,100,85,54,30.11,29.92,9,3,21,0.00
2014-6-4,86,73,62,70,64,59,99,77,42,29.97,29.73,7,2,13,0.17
2014-6-5,77,67,59,64,59,54,100,77,47,29.98,29.67,10,4,21,0.52
2014-6-6,82,65,48,59,53,47,100,69,38,30.09,29.96,8,3,14,0.00
2014-6-7,86,67,49,64,57,48,100,73,37,30.14,30.00,6,1,10,0.00
2014-6-8,79,66,54,73,64,54,100,93,69,30.04,29.82,7,1,12,0.78
2014-6-9,79,70,65,69,66,64,100,87,67,29.98,29.91,9,2,13,0.00
2014-6-10,85,71,60,74,67,60,100,88,62,30.01,29.94,5,1,8,0.08
2014-6-11,85,71,64,78,69,64,100,94,74,30.05,29.89,14,1,27,0.65
2014-6-12,87,72,65,76,69,65,100,92,63,29.99,29.84,8,2,17,1.55
2014-6-13,86,71,62,73,66,62,100,88,55,29.97,29.79,14,2,26,0.05
2014-6-14,75,64,55,62,56,53,100,77,52,30.21,29.97,9,4,18,0.00
2014-6-15,87,67,49,70,59,48,100,79,50,30.28,30.13,6,1,8,0.00
2014-6-16,92,73,57,75,66,56,100,82,50,30.23,30.11,7,2,13,0.00
2014-6-17,94,79,64,78,70,64,100,78,50,30.19,30.01,9,3,15,0.00
2014-6-18,95,84,72,78,73,68,92,70,52,30.09,30.00,20,7,30,0.00
2014-6-19,85,75,68,75,70,66,99,85,63,30.12,29.98,9,3,23,0.12
2014-6-20,85,73,65,73,68,65,100,86,60,30.14,29.97,4,1,8,0.02
2014-6-21,70,66,63,69,65,62,100,97,94,30.01,29.94,5,1,8,0.37
2014-6-22,80,70,63,70,65,62,100,85,59,30.07,29.98,6,1,9,0.00
2014-6-23,83,70,58,73,66,58,100,87,65,30.15,30.06,8,2,13,0.00
2014-6-24,87,73,61,80,70,61,100,92,67,30.15,30.00,9,1,11,0.05
2014-6-25,88,76,67,79,72,67,100,87,64,30.03,29.87,6,1,13,0.02
2014-6-26,86,75,66,70,67,64,96,78,54,30.09,29.96,8,3,16,0.00
2014-6-27,89,74,60,73,66,59,100,80,48,30.21,30.09,6,1,9,0.00
2014-6-28,87,74,65,76,70,64,100,88,63,30.30,30.20,7,2,9,0.11
2014-6-29,83,73,68,75,70,67,100,91,71,30.27,30.13,9,1,15,0.01
2014-6-30,89,75,64,79,71,64,100,89,63,30.15,29.97,9,1,14,0.04
2014-7-1,95,80,67,81,73,67,100,83,55,30.00,29.85,9,2,17,0.00
2014-7-2,92,80,70,80,73,69,100,81,55,29.99,29.87,9,2,14,0.03
2014-7-3,90,74,65,78,69,60,100,85,58,30.08,29.95,8,2,17,0.23
2014-7-4,78,69,56,62,57,52,91,67,46,30.32,30.08,14,5,22,0.00
2014-7-5,86,67,49,62,55,48,98,70,36,30.38,30.23,5,2,8,0.00
2014-7-6,89,70,52,68,60,51,99,73,40,30.24,30.01,9,2,14,0.00
2014-7-7,93,77,61,73,66,60,98,73,45,30.02,29.84,14,5,24,0.00
2014-7-8,94,78,68,76,69,65,92,75,47,29.92,29.74,22,6,53,0.08
2014-7-9,89,79,65,73,67,63,100,70,44,30.05,29.92,10,4,16,0.02
2014-7-10,89,72,58,71,64,58,100,81,49,30.15,30.05,8,2,13,0.18
2014-7-11,88,75,63,73,68,63,100,81,53,30.30,30.20,5,2,8,0.00
2014-7-12,94,76,62,73,66,61,100,76,37,30.27,30.12,9,2,15,0.00
2014-7-13,93,75,64,76,69,63,100,84,52,30.14,29.94,23,2,35,0.15
2014-7-14,86,74,69,79,72,69,100,94,70,30.01,29.89,10,2,21,0.33
2014-7-15,80,72,66,73,69,58,100,92,63,29.91,29.80,8,2,14,0.06
2014-7-16,78,66,54,62,57,54,100,75,45,30.06,29.89,10,3,17,0.00
2014-7-17,79,65,53,63,57,52,100,77,44,30.24,30.05,8,2,12,0.00
2014-7-18,81,67,52,67,61,52,100,81,55,30.33,30.24,5,1,10,0.03
2014-7-19,75,68,64,70,66,64,100,95,77,30.28,30.18,6,1,10,0.32
2014-7-20,81,71,63,71,67,63,100,87,64,30.20,30.11,6,1,8,0.00
2014-7-21,89,76,67,75,71,66,100,86,59,30.21,30.14,7,2,11,0.30
2014-7-22,91,78,69,78,73,69,100,86,59,30.23,30.07,6,1,8,0.00
2014-7-23,95,78,67,78,72,67,100,83,50,30.08,29.90,14,3,21,0.03
2014-7-24,81,72,60,71,65,58,97,81,50,30.07,29.95,6,2,9,0.03
2014-7-25,86,69,53,65,59,53,100,74,41,30.18,30.03,7,2,14,0.00
2014-7-26,93,74,63,69,64,60,99,75,39,30.09,29.90,13,2,21,0.09
2014-7-27,88,75,66,76,70,66,100,87,61,29.99,29.69,10,4,20,0.14
2014-7-28,75,68,59,69,64,56,100,85,67,29.97,29.65,12,5,23,0.08
2014-7-29,71,62,52,57,54,51,96,77,51,30.12,29.96,10,3,15,0.00
2014-7-30,78,64,48,65,57,47,100,82,56,30.16,30.08,8,2,15,0.00
2014-7-31,86,69,54,67,61,53,100,78,46,30.19,30.12,8,2,17,0.00
2014-8-1,78,68,57,70,64,57,100,88,71,30.24,30.17,8,1,12,0.00
2014-8-2,86,72,59,70,65,58,100,81,54,30.22,30.08,7,1,11,0.05
2014-8-3,86,73,62,70,66,62,100,80,52,30.16,30.07,12,3,19,0.00
2014-8-4,87,73,59,69,63,58,100,75,45,30.20,30.10,6,2,9,0.00
2014-8-5,88,70,57,73,64,57,100,84,45,30.16,30.00,7,1,11,0.32
2014-8-6,84,69,60,75,65,60,100,90,57,30.07,29.96,11,2,17,0.06
2014-8-7,84,71,60,67,61,56,100,76,40,30.16,30.05,7,2,11,0.00
2014-8-8,87,69,54,70,62,54,100,80,51,30.23,30.09,6,1,11,0.00
2014-8-9,85,71,60,71,65,59,100,82,56,30.19,30.09,6,2,11,0.00
2014-8-10,88,71,59,71,64,58,100,82,50,30.21,30.10,10,2,17,0.00
2014-8-11,74,65,61,68,63,61,100,96,73,30.16,30.05,9,1,15,0.71
2014-8-12,78,69,62,76,68,62,100,97,85,30.05,29.81,6,1,12,0.29
2014-8-13,76,68,59,69,63,58,100,85,62,30.02,29.86,13,4,25,0.07
2014-8-14,79,65,53,65,57,52,100,77,46,30.06,29.97,11,3,22,0.00
2014-8-15,78,62,46,57,52,45,100,76,41,30.12,30.05,10,2,16,0.00
2014-8-16,86,65,46,62,54,46,100,75,32,30.13,30.01,9,2,19,0.00
2014-8-17,84,74,66,72,67,61,93,80,63,30.03,29.96,11,4,20,0.00
2014-8-18,83,73,64,74,69,64,100,90,67,30.01,29.84,9,1,14,0.34
2014-8-19,82,73,68,77,71,68,100,93,75,29.97,29.87,6,1,8,0.07
2014-8-20,88,74,67,76,70,67,100,89,56,30.06,29.95,9,2,15,0.02
2014-8-21,85,72,65,76,69,65,100,90,64,30.11,30.04,9,2,18,0.10
2014-8-22,81,72,66,76,71,66,100,96,79,30.08,29.99,4,1,7,0.09
2014-8-23,79,70,67,76,70,67,100,98,87,30.14,30.01,11,2,14,0.19
2014-8-24,74,68,60,68,65,60,100,92,76,30.22,30.14,6,2,9,0.01
2014-8-25,83,66,57,70,62,57,100,87,54,30.29,30.18,6,1,10,0.00
2014-8-26,89,67,52,67,58,52,100,79,31,30.29,30.15,5,1,9,0.01
2014-8-27,92,73,55,76,66,54,100,83,55,30.18,29.99,9,2,17,0.02
2014-8-28,81,72,58,73,63,56,100,77,47,30.20,30.02,10,3,20,0.01
2014-8-29,88,66,50,68,59,49,100,80,47,30.28,30.16,6,1,11,0.00
2014-8-30,93,72,57,78,67,57,100,86,54,30.26,30.10,8,1,15,0.02
2014-8-31,88,75,68,75,70,67,100,88,62,30.16,30.04,10,2,18,0.02
2014-9-1,91,78,69,76,72,69,100,83,56,30.09,29.98,10,3,21,0.01
2014-9-2,94,79,72,77,72,68,94,79,53,30.03,29.90,17,6,30,0.12
2014-9-3,88,75,66,72,69,66,100,82,54,30.18,29.99,9,2,12,0.01
2014-9-4,90,73,62,79,69,62,100,89,60,30.23,30.11,7,1,12,0.01
2014-9-5,94,78,66,78,71,66,100,83,52,30.22,30.06,9,2,16,0.00
2014-9-6,93,77,66,78,71,64,100,85,56,30.09,29.92,9,3,17,0.10
2014-9-7,81,67,56,64,58,52,98,74,42,30.26,30.09,10,2,17,0.00
2014-9-8,74,61,49,64,57,49,100,89,65,30.33,30.25,9,2,15,0.01
2014-9-9,76,67,62,69,63,60,97,89,75,30.29,30.15,6,1,11,0.00
2014-9-10,85,72,66,73,68,65,98,86,63,30.17,29.97,8,2,14,0.00
2014-9-11,82,72,65,74,68,59,98,88,71,30.12,29.89,11,3,19,0.04
2014-9-12,75,64,58,62,58,55,95,79,60,30.24,30.11,7,3,11,0.00
2014-9-13,69,60,50,61,56,49,99,89,66,30.37,30.15,7,2,12,0.27
2014-9-14,70,55,42,56,50,41,100,84,54,30.43,30.27,5,1,9,0.01
2014-9-15,75,59,46,61,54,46,100,85,56,30.34,30.10,5,1,10,0.00
2014-9-16,74,61,50,59,55,49,99,81,50,30.16,30.08,10,2,17,0.00
2014-9-17,76,58,43,59,52,43,100,83,52,30.17,30.02,6,1,10,0.00
2014-9-18,78,62,49,59,53,48,100,76,42,30.22,30.04,8,2,11,0.00
2014-9-19,70,59,47,61,54,46,99,84,64,30.34,30.22,5,1,8,0.00